Вернуться в каталог

STARLINK-36639

АктивенСвязьSSO
NORAD 67669·PAYLOAD·🇺🇸 United States

Запущен Feb 2, 2026 с Vandenberg Space Force Base

Loading…

Ближайшие Пролёты (ближайшие 24 часа)

TLE

СвежийSource: CelesTrak SupGP

Эпоха: Sep 15, 2026, 04:14 UTC

1 67669C 26022X   26258.17687500 -.00052014  00000+0 -16147-2 0  2585
2 67669  97.2841 289.8258 0001155  92.3068 204.2546 15.33463725    12

Отслеживайте STARLINK-36639 в реальном времени с AllMySat

Download on the App Store